• In Latvia
  • List of Countries
  • For 7 days
  • Water Temperature
  • Satellite Maps
  • Weather Map
  • Weather Widgets
  • user-avatar
    Login

    Hourly Weather Hirosima

    Today, 22 February, Thursday

    Time Temperature Precipitation Wind Pressure Humidity
    00:00 +3°C° 0 mm 2 mps 763 mmHg 81%
    01:00 +3°C° 0 mm 2 mps 763 mmHg 80%
    02:00 +3°C° 0 mm 2 mps 763 mmHg 79%
    03:00 +2°C° 0 mm 2 mps 764 mmHg 78%
    04:00 +2°C° 0 mm 2 mps 764 mmHg 76%
    05:00 +2°C° 0 mm 2 mps 764 mmHg 75%
    06:00 +2°C° 0 mm 2 mps 764 mmHg 74%
    07:00 +3°C° 0 mm 2 mps 764 mmHg 67%
    08:00 +6°C° 0 mm 1 mps 764 mmHg 61%
    09:00 +8°C° 0 mm 1 mps 764 mmHg 53%
    10:00 +9°C° 0 mm 1 mps 764 mmHg 50%
    11:00 +10°C° 0 mm 1 mps 764 mmHg 46%
    12:00 +10°C° 0 mm 2 mps 764 mmHg 43%
    13:00 +9°C° 0 mm 2 mps 763 mmHg 43%
    14:00 +9°C° 0 mm 2 mps 763 mmHg 43%
    15:00 +9°C° 0 mm 3 mps 763 mmHg 43%
    16:00 +8°C° 0 mm 2 mps 763 mmHg 47%
    17:00 +7°C° 0 mm 2 mps 763 mmHg 50%
    18:00 +6°C° 0 mm 2 mps 763 mmHg 54%
    19:00 +5°C° 0 mm 2 mps 763 mmHg 57%
    20:00 +4°C° 0 mm 2 mps 764 mmHg 60%
    21:00 +3°C° 0 mm 2 mps 764 mmHg 63%
    22:00 +2°C° 0 mm 2 mps 764 mmHg 64%
    23:00 +3°C° 0 mm 1 mps 764 mmHg 65%

    Tomorrow, 23 February, Friday

    Time Temperature Precipitation Wind Pressure Humidity
    00:00 +2°C° 0 mm 1 mps 764 mmHg 66%
    01:00 +2°C° 0 mm 1 mps 764 mmHg 66%
    02:00 +2°C° 0 mm 1 mps 764 mmHg 66%
    03:00 +2°C° 0 mm 1 mps 765 mmHg 67%
    04:00 +2°C° 0 mm 1 mps 765 mmHg 66%
    05:00 +2°C° 0 mm 1 mps 765 mmHg 66%
    06:00 +2°C° 0 mm 1 mps 765 mmHg 65%
    07:00 +4°C° 0 mm 1 mps 765 mmHg 57%
    08:00 +6°C° 0 mm 1 mps 765 mmHg 50%
    09:00 +7°C° 0 mm 1 mps 766 mmHg 42%
    10:00 +8°C° 0 mm 2 mps 766 mmHg 41%
    11:00 +9°C° 0 mm 2 mps 766 mmHg 40%
    12:00 +10°C° 0 mm 3 mps 766 mmHg 39%
    13:00 +10°C° 0 mm 3 mps 765 mmHg 40%
    14:00 +10°C° 0 mm 4 mps 765 mmHg 42%
    15:00 +11°C° 0 mm 4 mps 765 mmHg 43%
    16:00 +9°C° 0 mm 3 mps 765 mmHg 50%
    17:00 +8°C° 0 mm 3 mps 765 mmHg 57%
    18:00 +7°C° 0 mm 3 mps 765 mmHg 64%
    19:00 +7°C° 0 mm 3 mps 766 mmHg 67%
    20:00 +6°C° 0 mm 2 mps 766 mmHg 70%
    21:00 +6°C° 0 mm 2 mps 767 mmHg 73%
    22:00 +4°C° 0 mm 3 mps 767 mmHg 74%
    23:00 +4°C° 0 mm 3 mps 767 mmHg 74%

    Day after tomorrow, 24 February, Saturday

    Time Temperature Precipitation Wind Pressure Humidity
    00:00 +4°C° 0 mm 3 mps 767 mmHg 75%
    01:00 +4°C° 0 mm 3 mps 767 mmHg 75%
    02:00 +4°C° 0 mm 4 mps 767 mmHg 76%
    03:00 +4°C° 0 mm 4 mps 767 mmHg 77%
    04:00 +5°C° 0 mm 4 mps 767 mmHg 78%
    05:00 +5°C° 0 mm 4 mps 767 mmHg 80%
    06:00 +5°C° 0 mm 4 mps 767 mmHg 82%
    07:00 +7°C° 0 mm 4 mps 768 mmHg 77%
    08:00 +8°C° 0 mm 4 mps 768 mmHg 73%
    09:00 +9°C° 0 mm 5 mps 769 mmHg 68%
    10:00 +10°C° 0 mm 5 mps 768 mmHg 61%
    11:00 +11°C° 0 mm 4 mps 768 mmHg 53%
    12:00 +12°C° 0 mm 4 mps 768 mmHg 46%
    13:00 +12°C° 0 mm 4 mps 768 mmHg 43%
    14:00 +12°C° 0 mm 4 mps 768 mmHg 40%
    15:00 +12°C° 0 mm 4 mps 767 mmHg 37%
    16:00 +10°C° 0 mm 3 mps 768 mmHg 42%
    17:00 +8°C° 0 mm 3 mps 768 mmHg 47%
    18:00 +7°C° 0 mm 3 mps 768 mmHg 52%
    19:00 +5°C° 0 mm 3 mps 769 mmHg 56%
    20:00 +4°C° 0 mm 3 mps 769 mmHg 59%
    21:00 +4°C° 0 mm 3 mps 770 mmHg 63%
    22:00 +5°C° 0 mm 2 mps 769 mmHg 64%
    23:00 +4°C° 0 mm 2 mps 769 mmHg 65%

    25 February, Sunday

    Time Temperature Precipitation Wind Pressure Humidity
    00:00 +4°C° 0 mm 2 mps 769 mmHg 67%
    01:00 +4°C° 0 mm 2 mps 769 mmHg 67%
    02:00 +4°C° 0 mm 2 mps 769 mmHg 67%
    03:00 +4°C° 0 mm 2 mps 768 mmHg 68%
    04:00 +4°C° 0 mm 2 mps 768 mmHg 67%
    05:00 +4°C° 0 mm 2 mps 768 mmHg 66%
    06:00 +4°C° 0 mm 2 mps 768 mmHg 65%
    07:00 +5°C° 0 mm 2 mps 768 mmHg 60%
    08:00 +6°C° 0 mm 2 mps 769 mmHg 55%
    09:00 +7°C° 0 mm 2 mps 769 mmHg 51%
    10:00 +8°C° 0 mm 2 mps 769 mmHg 47%
    11:00 +10°C° 0 mm 2 mps 768 mmHg 43%
    12:00 +13°C° 0 mm 2 mps 768 mmHg 39%
    13:00 +13°C° 0 mm 2 mps 767 mmHg 39%
    14:00 +13°C° 0 mm 2 mps 767 mmHg 39%
    15:00 +14°C° 0 mm 2 mps 766 mmHg 38%
    16:00 +12°C° 0 mm 2 mps 766 mmHg 45%
    17:00 +10°C° 0 mm 1 mps 766 mmHg 52%
    18:00 +8°C° 0 mm 1 mps 766 mmHg 58%
    19:00 +8°C° 0 mm 1 mps 766 mmHg 61%
    20:00 +7°C° 0 mm 1 mps 767 mmHg 63%
    21:00 +7°C° 0 mm 1 mps 767 mmHg 66%
    22:00 +5°C° 0 mm 2 mps 767 mmHg 66%
    23:00 +5°C° 0 mm 2 mps 767 mmHg 66%

    26 February, Monday

    Time Temperature Precipitation Wind Pressure Humidity
    00:00 +5°C° 0 mm 2 mps 766 mmHg 67%
    01:00 +5°C° 0 mm 2 mps 766 mmHg 67%
    02:00 +5°C° 0 mm 2 mps 766 mmHg 68%
    03:00 +5°C° 0 mm 2 mps 766 mmHg 68%
    04:00 +4°C° 0 mm 2 mps 766 mmHg 69%
    05:00 +4°C° 0 mm 2 mps 766 mmHg 69%
    06:00 +3°C° 0 mm 2 mps 766 mmHg 70%
    07:00 +5°C° 0 mm 2 mps 766 mmHg 62%
    08:00 +7°C° 0 mm 2 mps 766 mmHg 55%
    09:00 +9°C° 0 mm 2 mps 767 mmHg 47%
    10:00 +12°C° 0 mm 2 mps 766 mmHg 43%
    11:00 +13°C° 0 mm 1 mps 766 mmHg 39%
    12:00 +15°C° 0 mm 1 mps 766 mmHg 35%
    13:00 +15°C° 0 mm 1 mps 765 mmHg 36%
    14:00 +15°C° 0 mm 1 mps 765 mmHg 36%
    15:00 +15°C° 0 mm 1 mps 764 mmHg 37%
    16:00 +13°C° 0 mm 1 mps 765 mmHg 43%
    17:00 +11°C° 0 mm 1 mps 765 mmHg 50%
    18:00 +9°C° 0 mm 1 mps 765 mmHg 57%
    19:00 +9°C° 0 mm 1 mps 765 mmHg 60%
    20:00 +8°C° 0 mm 1 mps 766 mmHg 64%
    21:00 +7°C° 0 mm 1 mps 766 mmHg 68%
    22:00 +7°C° 0 mm 1 mps 766 mmHg 69%
    23:00 +6°C° 0 mm 1 mps 766 mmHg 70%

    27 February, Tuesday

    Time Temperature Precipitation Wind Pressure Humidity
    00:00 +6°C° 0 mm 1 mps 766 mmHg 71%
    01:00 +6°C° 0 mm 1 mps 765 mmHg 70%
    02:00 +6°C° 0 mm 1 mps 765 mmHg 70%
    03:00 +5°C° 0 mm 1 mps 765 mmHg 69%
    04:00 +5°C° 0 mm 1 mps 765 mmHg 69%
    05:00 +5°C° 0 mm 1 mps 765 mmHg 68%
    06:00 +5°C° 0 mm 1 mps 765 mmHg 67%
    07:00 +7°C° 0 mm 1 mps 766 mmHg 61%
    08:00 +9°C° 0 mm 1 mps 766 mmHg 55%
    09:00 +11°C° 0 mm 0 mps 766 mmHg 49%
    10:00 +13°C° 0 mm 1 mps 766 mmHg 45%
    11:00 +14°C° 0 mm 1 mps 765 mmHg 42%
    12:00 +16°C° 0 mm 1 mps 765 mmHg 38%
    13:00 +16°C° 0 mm 2 mps 764 mmHg 39%
    14:00 +16°C° 0 mm 2 mps 764 mmHg 39%
    15:00 +16°C° 0 mm 2 mps 763 mmHg 40%
    16:00 +14°C° 0 mm 2 mps 763 mmHg 47%
    17:00 +13°C° 0 mm 2 mps 764 mmHg 54%
    18:00 +11°C° 0 mm 1 mps 764 mmHg 61%
    19:00 +11°C° 0 mm 1 mps 764 mmHg 63%
    20:00 +10°C° 0 mm 1 mps 764 mmHg 65%
    21:00 +9°C° 0 mm 1 mps 764 mmHg 67%
    22:00 +9°C° 0 mm 1 mps 764 mmHg 68%
    23:00 +9°C° 0 mm 1 mps 764 mmHg 69%
    Show more